Zurück zum Katalog

TIANQI 25

AktivKommunikationLEO
NORAD 59909·PAYLOAD·🇨🇳 China

Gestartet May 29, 2024 von Yellow Sea Launch Area

Loading…

Nächste Überflüge (nächste 24 Stunden)

TLE

AktuellSource: Space-Track

Epoche: Sep 14, 2026, 22:09 UTC

1 59909U 24102A   26257.92311002 -.00000024  00000-0  71789-4 0  9994
2 59909  44.9760 222.6321 0012869 303.0214  56.9382 13.99192535117471

Verfolge TIANQI 25 in Echtzeit mit AllMySat

Download on the App Store